 day,  time,  air_temp(C),  RH(%),  ground_temp10cm(C),  ground_temp20cm(C),  ground_temp40cm(C),  precipitation(mm/h),  Solar_Radiation(MJ/m2h),  lack, 
 06/04/01, 01:00,  -6.9,  68,   0.6,   1.0,   1.8,   0.0,  0.00, 
 06/04/01, 02:00,  -7.6,  78,   0.6,   1.0,   1.7,   0.5,  0.00, 
 06/04/01, 03:00,  -5.0,  48,   0.6,   1.0,   1.7,   0.0,  0.00, 
 06/04/01, 04:00,  -3.9,  31,   0.6,   1.0,   1.7,   0.0,  0.00, 
 06/04/01, 05:00,  -3.5,  42,   0.6,   1.0,   1.7,   0.0,  0.00, 
 06/04/01, 06:00,  -2.5,  45,   0.6,   1.0,   1.8,   0.0,  0.00, 
 06/04/01, 07:00,  -1.1,  43,   0.6,   1.0,   1.8,   0.0,  0.20, 
 06/04/01, 08:00,   0.5,  66,   0.6,   1.0,   1.7,   0.0,  0.56, 
 06/04/01, 09:00,   2.9,  36,   0.6,   1.0,   1.7,   0.0,  1.13, 
 06/04/01, 10:00,   4.1,  39,   0.6,   1.0,   1.7,   0.0,  1.99, 
 06/04/01, 11:00,   4.5,  37,   0.6,   1.0,   1.8,   0.0,  2.80, 
 06/04/01, 12:00,   5.4,  48,   0.6,   1.1,   1.8,   0.0,  3.03, 
 06/04/01, 13:00,   6.1,  50,   0.6,   1.1,   1.8,   0.0,  3.03, 
 06/04/01, 14:00,   7.0,  50,   0.6,   1.0,   1.8,   0.0,  2.79, 
 06/04/01, 15:00,   6.5,  46,   0.6,   1.0,   1.8,   0.0,  2.31, 
 06/04/01, 16:00,   6.0,  52,   0.6,   1.1,   1.7,   0.0,  1.49, 
 06/04/01, 17:00,   5.8,  50,   0.6,   1.0,   1.8,   0.0,  0.74, 
 06/04/01, 18:00,   4.1,  62,   0.6,   1.1,   1.7,   0.0,  0.20, 
 06/04/01, 19:00,   4.0,  64,   0.6,   1.0,   1.7,   0.0,  0.00, 
 06/04/01, 20:00,   3.3,  67,   0.6,   1.0,   1.7,   0.0,  0.00, 
 06/04/01, 21:00,   3.9,  64,   0.6,   1.0,   1.7,   0.0,  0.00, 
 06/04/01, 22:00,   3.7,  72,   0.6,   1.0,   1.7,   0.0,  0.00, 
 06/04/01, 23:00,   5.6,  67,   0.6,   1.0,   1.7,   0.0,  0.00, 
 06/04/02, 00:00,   5.8,  72,   0.6,   1.1,   1.8,   0.0,  0.00, 
 06/04/02, 01:00,   5.4,  65,   0.6,   1.0,   1.8,   0.0,  0.00, 
 06/04/02, 02:00,   2.4,  96,   0.6,   1.0,   1.7,   0.0,  0.00, 
 06/04/02, 03:00,   1.3,  99,   0.6,   1.0,   1.7,   0.0,  0.00, 
 06/04/02, 04:00,   2.8,  95,   0.6,   1.0,   1.8,   0.5,  0.00, 
 06/04/02, 05:00,   2.6,  97,   0.6,   1.0,   1.7,   0.5,  0.00, 
 06/04/02, 06:00,   2.7,  99,   0.6,   1.0,   1.7,   0.5,  0.00, 
 06/04/02, 07:00,   3.1,  99,   0.6,   1.1,   1.8,   0.0,  0.00, 
 06/04/02, 08:00,   3.3,  99,   0.6,   1.0,   1.7,   0.0,  0.03, 
 06/04/02, 09:00,   4.4,  99,   0.6,   1.0,   1.8,   0.0,  0.18, 
 06/04/02, 10:00,   4.3,  99,   0.6,   1.0,   1.7,   0.5,  0.17, 
 06/04/02, 11:00,   4.7,  99,   0.6,   1.1,   1.8,   0.0,  0.16, 
 06/04/02, 12:00,   5.5,  99,   0.6,   1.1,   1.8,   0.5,  0.29, 
 06/04/02, 13:00,   5.9,  99,   0.6,   1.0,   1.7,   1.5,  0.35, 
 06/04/02, 14:00,   6.3,  99,   0.6,   1.0,   1.8,   3.0,  0.30, 
 06/04/02, 15:00,   7.1,  99,   0.6,   1.0,   1.8,   0.5,  0.31, 
 06/04/02, 16:00,   4.2,  99,   0.6,   1.0,   1.7,   5.5,  0.05, 
 06/04/02, 17:00,   4.8,  99,   0.6,   1.0,   1.8,   3.0,  0.00, 
 06/04/02, 18:00,   4.6,  99,   0.6,   1.0,   1.8,   2.0,  0.03, 
 06/04/02, 19:00,   4.2,  99,   0.6,   1.0,   1.7,   2.5,  0.00, 
 06/04/02, 20:00,   4.5,  99,   0.6,   1.0,   1.7,   0.5,  0.00, 
 06/04/02, 21:00,   3.2,  99,   0.6,   1.0,   1.7,   1.0,  0.00, 
 06/04/02, 22:00,   2.7,  99,   0.6,   1.0,   1.7,   0.5,  0.00, 
 06/04/02, 23:00,   2.2,  99,   0.5,   1.0,   1.7,   1.0,  0.00, 
 06/04/03, 00:00,   1.4,  99,   0.5,   1.0,   1.7,   0.0,  0.00, 
 06/04/03, 01:00,   0.0,  99,   0.5,   1.0,   1.7,   0.5,  0.00, 
 06/04/03, 02:00,   0.0,  93,   0.5,   0.9,   1.7,   0.0,  0.00, 
 06/04/03, 03:00,  -0.4,  97,   0.5,   0.9,   1.7,   0.0,  0.00, 
 06/04/03, 04:00,  -1.0,  98,   0.5,   0.9,   1.7,   0.0,  0.00, 
 06/04/03, 05:00,  -1.0,  93,   0.5,   0.9,   1.7,   0.0,  0.00, 
 06/04/03, 06:00,  -1.2,  97,   0.5,   0.9,   1.7,   0.0,  0.00, 
 06/04/03, 07:00,  -1.5,  99,   0.5,   0.9,   1.7,   0.5,  0.00, 
 06/04/03, 08:00,  -1.3,  99,   0.5,   0.9,   1.7,   0.5,  0.07, 
 06/04/03, 09:00,  -1.4,  99,   0.5,   0.9,   1.7,   0.5,  0.25, 
 06/04/03, 10:00,  -1.4,  97,   0.5,   0.9,   1.7,   0.0,  0.43, 
 06/04/03, 11:00,  -1.5,  99,   0.5,   0.9,   1.7,   0.5,  0.49, 
 06/04/03, 12:00,  -1.8,  99,   0.5,   0.9,   1.7,   0.0,  0.38, 
 06/04/03, 13:00,  -1.4,  99,   0.5,   0.9,   1.7,   0.5,  0.53, 
 06/04/03, 14:00,  -1.3,  93,   0.5,   0.9,   1.7,   0.0,  0.85, 
 06/04/03, 15:00,  -1.2,  90,   0.5,   0.9,   1.7,   0.0,  0.87, 
 06/04/03, 16:00,  -1.6,  93,   0.5,   0.8,   1.7,   0.0,  0.53, 
 06/04/03, 17:00,  -1.4,  92,   0.5,   0.9,   1.7,   0.5,  0.41, 
 06/04/03, 18:00,  -2.1,  90,   0.5,   0.9,   1.7,   0.5,  0.18, 
 06/04/03, 19:00,  -2.2,  85,   0.5,   0.8,   1.6,   0.0,  0.00, 
 06/04/03, 20:00,  -1.9,  77,   0.5,   0.9,   1.7,   0.0,  0.00, 
 06/04/03, 21:00,  -1.9,  64,   0.5,   0.9,   1.7,   0.0,  0.00, 
 06/04/03, 22:00,  -2.4,  63,   0.5,   0.9,   1.7,   0.0,  0.00, 
 06/04/03, 23:00,  -1.9,  55,   0.5,   0.9,   1.7,   0.0,  0.00, 
 06/04/04, 00:00,  -0.9,  50,   0.5,   0.9,   1.7,   0.0,  0.00, 
 06/04/04, 01:00,  -1.9,  71,   0.5,   0.8,   1.7,   0.0,  0.00, 
 06/04/04, 02:00,  -1.0,  68,   0.5,   0.9,   1.7,   0.0,  0.00, 
 06/04/04, 03:00,   0.5,  62,   0.5,   0.9,   1.7,   0.0,  0.00, 
 06/04/04, 04:00,   0.4,  60,   0.5,   0.8,   1.6,   0.0,  0.00, 
 06/04/04, 05:00,  -0.3,  53,   0.5,   0.9,   1.7,   0.0,  0.00, 
 06/04/04, 06:00,  -1.9,  68,   0.5,   0.8,   1.7,   0.0,  0.00, 
 06/04/04, 07:00,   1.8,  58,   0.5,   0.8,   1.7,   0.0,  0.38, 
 06/04/04, 08:00,   2.8,  70,   0.5,   0.8,   1.7,   0.0,  1.19, 
 06/04/04, 09:00,   4.6,  57,   0.5,   0.9,   1.7,   0.0,  1.95, 
 06/04/04, 10:00,   7.7,  54,   0.5,   0.9,   1.7,   0.0,  2.55, 
 06/04/04, 11:00,  10.1,  45,   0.6,   0.9,   1.7,   0.0,  2.97, 
 06/04/04, 12:00,  11.6,  31,   0.6,   0.9,   1.7,   0.0,  3.07, 
 06/04/04, 13:00,  11.4,  27,   0.6,   0.9,   1.8,   0.0,  2.93, 
 06/04/04, 14:00,  11.6,  25,   0.6,   0.9,   1.7,   0.0,  1.81, 
 06/04/04, 15:00,  10.8,  31,   0.6,   0.9,   1.7,   0.0,  0.85, 
 06/04/04, 16:00,   8.7,  41,   0.6,   0.9,   1.7,   0.0,  0.36, 
 06/04/04, 17:00,   7.8,  45,   0.6,   0.9,   1.7,   0.0,  0.22, 
 06/04/04, 18:00,   6.2,  51,   0.6,   0.9,   1.7,   0.0,  0.00, 
 06/04/04, 19:00,   5.5,  53,   0.6,   0.9,   1.6,   0.0,  0.00, 
 06/04/04, 20:00,   6.2,  39,   0.6,   0.9,   1.6,   0.0,  0.00, 
 06/04/04, 21:00,   5.5,  49,   0.6,   0.9,   1.6,   0.0,  0.00, 
 06/04/04, 22:00,   3.6,  72,   0.6,   0.9,   1.6,   0.0,  0.00, 
 06/04/04, 23:00,   2.0,  92,   0.6,   0.9,   1.6,   0.0,  0.00, 
 06/04/05, 00:00,   2.2,  87,   0.6,   0.9,   1.6,   0.0,  0.00, 
 06/04/05, 01:00,   2.0,  90,   0.5,   0.9,   1.6,   0.0,  0.00, 
 06/04/05, 02:00,   2.8,  94,   0.6,   0.9,   1.6,   0.0,  0.00, 
 06/04/05, 03:00,   3.3,  98,   0.5,   0.9,   1.6,   1.0,  0.00, 
 06/04/05, 04:00,   3.7,  99,   0.5,   0.9,   1.6,   1.0,  0.00, 
 06/04/05, 05:00,   4.4,  99,   0.5,   0.9,   1.6,   0.0,  0.00, 
 06/04/05, 06:00,   4.1,  99,   0.5,   0.9,   1.6,   1.0,  0.00, 
 06/04/05, 07:00,   2.9,  99,   0.5,   0.9,   1.6,   1.5,  0.00, 
 06/04/05, 08:00,   3.3,  99,   0.6,   0.9,   1.6,   0.0,  0.11, 
 06/04/05, 09:00,   2.4,  99,   0.5,   0.9,   1.6,   1.5,  0.17, 
 06/04/05, 10:00,   4.1,  99,   0.5,   0.9,   1.6,   2.5,  0.26, 
 06/04/05, 11:00,   5.1,  99,   0.5,   0.9,   1.6,   2.0,  0.46, 
 06/04/05, 12:00,   4.6,  99,   0.5,   0.9,   1.6,   1.5,  0.61, 
 06/04/05, 13:00,   3.8,  99,   0.5,   0.8,   1.6,   1.5,  0.69, 
 06/04/05, 14:00,   2.4,  99,   0.4,   0.8,   1.6,   2.0,  0.32, 
 06/04/05, 15:00,   2.0,  99,   0.4,   0.8,   1.6,   0.5,  0.31, 
 06/04/05, 16:00,   1.6,  99,   0.4,   0.8,   1.6,   0.5,  0.18, 
 06/04/05, 17:00,   1.5,  99,   0.4,   0.8,   1.6,   0.0,  0.15, 
 06/04/05, 18:00,   1.4,  99,   0.4,   0.8,   1.5,   0.0,  0.06, 
 06/04/05, 19:00,   1.2,  99,   0.4,   0.8,   1.5,   0.5,  0.00, 
 06/04/05, 20:00,   1.2,  99,   0.4,   0.8,   1.5,   0.5,  0.00, 
 06/04/05, 21:00,   0.6,  99,   0.4,   0.8,   1.5,   1.0,  0.00, 
 06/04/05, 22:00,  -0.5,  99,   0.4,   0.8,   1.5,   0.5,  0.00, 
 06/04/05, 23:00,  -1.0,  96,   0.4,   0.8,   1.5,   0.0,  0.00, 
 06/04/06, 00:00,  -1.5,  95,   0.4,   0.8,   1.5,   0.0,  0.00, 
 06/04/06, 01:00,  -2.3,  91,   0.4,   0.8,   1.5,   0.5,  0.00, 
 06/04/06, 02:00,  -3.1,  98,   0.4,   0.8,   1.5,   0.0,  0.00, 
 06/04/06, 03:00,  -3.8,  90,   0.4,   0.8,   1.5,   0.0,  0.00, 
 06/04/06, 04:00,  -4.6,  88,   0.4,   0.8,   1.5,   0.0,  0.00, 
 06/04/06, 05:00,  -4.9,  71,   0.4,   0.8,   1.5,   0.0,  0.00, 
 06/04/06, 06:00,  -5.3,  70,   0.4,   0.8,   1.5,   0.5,  0.00, 
 06/04/06, 07:00,  -2.8,  46,   0.4,   0.8,   1.5,   0.0,  0.42, 
 06/04/06, 08:00,  -2.6,  66,   0.4,   0.8,   1.5,   0.0,  1.30, 
 06/04/06, 09:00,  -2.1,  74,   0.4,   0.8,   1.5,   0.0,  2.08, 
 06/04/06, 10:00,  -0.2,  70,   0.4,   0.8,   1.5,   0.0,  2.72, 
 06/04/06, 11:00,   1.1,  60,   0.4,   0.8,   1.5,   0.0,  3.22, 
 06/04/06, 12:00,   2.6,  47,   0.4,   0.8,   1.5,   0.0,  3.45, 
 06/04/06, 13:00,   1.7,  55,   0.4,   0.8,   1.5,   0.0,  3.47, 
 06/04/06, 14:00,   2.1,  51,   0.4,   0.8,   1.5,   0.0,  3.10, 
 06/04/06, 15:00,   2.2,  51,   0.5,   0.8,   1.5,   0.0,  2.72, 
 06/04/06, 16:00,   1.4,  62,   0.6,   0.8,   1.5,   0.0,  1.89, 
 06/04/06, 17:00,   0.0,  63,   0.5,   0.8,   1.5,   0.0,  0.75, 
 06/04/06, 18:00,  -1.0,  70,   0.6,   0.9,   1.5,   0.0,  0.20, 
 06/04/06, 19:00,  -1.7,  75,   0.6,   0.9,   1.5,   0.0,  0.00, 
 06/04/06, 20:00,  -1.7,  79,   0.6,   0.9,   1.5,   0.0,  0.00, 
 06/04/06, 21:00,  -2.2,  82,   0.6,   0.9,   1.5,   0.0,  0.00, 
 06/04/06, 22:00,  -2.0,  84,   0.5,   0.9,   1.5,   0.0,  0.00, 
 06/04/06, 23:00,  -1.2,  70,   0.6,   0.9,   1.5,   0.0,  0.00, 
 06/04/07, 00:00,  -1.5,  75,   0.5,   0.9,   1.5,   0.0,  0.00, 
 06/04/07, 01:00,  -2.1,  82,   0.5,   0.9,   1.5,   0.0,  0.00, 
 06/04/07, 02:00,   0.4,  63,   0.5,   0.9,   1.5,   0.0,  0.00, 
 06/04/07, 03:00,  -0.1,  67,   0.6,   0.9,   1.5,   0.0,  0.00, 
 06/04/07, 04:00,  -0.2,  66,   0.5,   1.0,   1.5,   0.0,  0.00, 
 06/04/07, 05:00,  -0.6,  64,   0.6,   1.0,   1.5,   0.0,  0.00, 
 06/04/07, 06:00,  -2.1,  82,   0.5,   1.0,   1.6,   0.0,  0.00, 
 06/04/07, 07:00,   1.2,  55,   0.6,   1.0,   1.6,   0.0,  0.26, 
 06/04/07, 08:00,  -0.6,  78,   0.5,   1.0,   1.6,   0.0,  0.98, 
 06/04/07, 09:00,   2.5,  58,   0.6,   1.0,   1.6,   0.0,  1.83, 
 06/04/07, 10:00,   2.8,  58,   0.6,   1.0,   1.6,   0.0,  1.52, 
 06/04/07, 11:00,   4.7,  49,   0.6,   1.0,   1.6,   0.0,  2.50, 
 06/04/07, 12:00,   5.9,  46,   0.6,   1.0,   1.7,   0.0,  3.30, 
 06/04/07, 13:00,   6.2,  44,   0.7,   1.0,   1.7,   0.0,  3.31, 
 06/04/07, 14:00,   7.3,  42,   0.8,   1.0,   1.7,   0.0,  3.01, 
 06/04/07, 15:00,   7.0,  42,   0.9,   1.0,   1.6,   0.0,  2.62, 
 06/04/07, 16:00,   5.9,  44,   0.9,   1.0,   1.6,   0.0,  1.83, 
 06/04/07, 17:00,   5.2,  47,   0.9,   1.1,   1.7,   0.0,  0.85, 
 06/04/07, 18:00,   4.7,  54,   0.9,   1.1,   1.7,   0.0,  0.44, 
 06/04/07, 19:00,   3.7,  57,   1.0,   1.1,   1.7,   0.0,  0.01, 
 06/04/07, 20:00,   3.1,  57,   1.0,   1.2,   1.6,   0.0,  0.00, 
 06/04/07, 21:00,   2.2,  62,   1.0,   1.2,   1.7,   0.0,  0.00, 
 06/04/07, 22:00,   2.5,  58,   1.0,   1.2,   1.7,   0.0,  0.00, 
 06/04/07, 23:00,   1.9,  56,   1.0,   1.3,   1.6,   0.0,  0.00, 
 06/04/08, 00:00,   3.0,  52,   1.0,   1.3,   1.7,   0.0,  0.00, 
 06/04/08, 01:00,   3.0,  53,   1.0,   1.3,   1.6,   0.0,  0.00, 
 06/04/08, 02:00,   2.8,  55,   1.0,   1.3,   1.6,   0.0,  0.00, 
 06/04/08, 03:00,   2.6,  63,   1.0,   1.4,   1.6,   0.0,  0.00, 
 06/04/08, 04:00,   2.6,  70,   1.0,   1.4,   1.7,   0.0,  0.00, 
 06/04/08, 05:00,   2.5,  70,   1.0,   1.4,   1.7,   0.0,  0.00, 
 06/04/08, 06:00,   2.2,  71,   1.0,   1.4,   1.7,   0.0,  0.00, 
 06/04/08, 07:00,   1.0,  94,   1.0,   1.4,   1.7,   0.0,  0.00, 
 06/04/08, 08:00,   0.6,  99,   1.0,   1.4,   1.7,   0.0,  0.00, 
 06/04/08, 09:00,   0.9,  99,   1.0,   1.4,   1.7,   0.0,  0.00, 
 06/04/08, 10:00,  -0.2,  99,   1.0,   1.4,   1.7,   3.0,  0.02, 
 06/04/08, 11:00,  -0.4,  99,   1.0,   1.4,   1.8,   3.5,  0.23, 
 06/04/08, 12:00,  -1.3,  99,   1.0,   1.4,   1.7,   1.0,  0.18, 
 06/04/08, 13:00,  -1.2,  99,   0.9,   1.4,   1.8,   0.5,  0.73, 
 06/04/08, 14:00,  -1.7,  99,   0.9,   1.4,   1.8,   1.5,  0.41, 
 06/04/08, 15:00,  -1.7,  99,   0.9,   1.3,   1.8,   2.5,  0.18, 
 06/04/08, 16:00,  -2.0,  99,   0.9,   1.3,   1.8,   1.0,  0.28, 
 06/04/08, 17:00,  -2.2,  99,   0.9,   1.3,   1.8,   0.0,  0.18, 
 06/04/08, 18:00,  -2.5,  99,   0.9,   1.3,   1.8,   1.0,  0.02, 
 06/04/08, 19:00,  -2.8,  99,   0.9,   1.3,   1.8,   0.5,  0.00, 
 06/04/08, 20:00,  -2.9,  99,   0.8,   1.3,   1.8,   0.0,  0.00, 
 06/04/08, 21:00,  -2.8,  99,   0.8,   1.3,   1.8,   0.5,  0.00, 
 06/04/08, 22:00,  -2.9,  99,   0.9,   1.3,   1.8,   0.5,  0.00, 
 06/04/08, 23:00,  -2.8,  99,   0.9,   1.3,   1.8,   0.0,  0.00, 
 06/04/09, 00:00,  -2.7,  99,   0.8,   1.3,   1.8,   0.0,  0.00, 
 06/04/09, 01:00,  -2.8,  99,   0.8,   1.3,   1.8,   0.0,  0.00, 
 06/04/09, 02:00,  -2.7,  97,   0.8,   1.3,   1.8,   0.5,  0.00, 
 06/04/09, 03:00,  -2.7,  98,   0.8,   1.3,   1.8,   0.0,  0.00, 
 06/04/09, 04:00,  -2.7,  97,   0.8,   1.3,   1.8,   0.0,  0.00, 
 06/04/09, 05:00,  -2.8,  99,   0.8,   1.3,   1.8,   0.0,  0.00, 
 06/04/09, 06:00,  -2.8,  98,   0.8,   1.3,   1.8,   0.5,  0.00, 
 06/04/09, 07:00,  -2.9,  99,   0.8,   1.3,   1.8,   0.0,  0.13, 
 06/04/09, 08:00,  -1.8,  99,   0.8,   1.3,   1.8,   0.0,  0.70, 
 06/04/09, 09:00,  -1.6,  99,   0.8,   1.3,   1.8,   0.0,  0.69, 
 06/04/09, 10:00,   0.3,  99,   0.8,   1.3,   1.8,   0.0,  1.29, 
 06/04/09, 11:00,   1.9,  99,   0.8,   1.3,   1.8,   0.0,  2.52, 
 06/04/09, 12:00,   1.9,  84,   0.8,   1.2,   1.8,   0.5,  2.97, 
 06/04/09, 13:00,   2.5,  83,   0.8,   1.2,   1.8,   0.0,  2.26, 
 06/04/09, 14:00,   3.0,  61,   0.8,   1.2,   1.8,   0.0,  2.43, 
 06/04/09, 15:00,   4.2,  46,   0.8,   1.2,   1.8,   0.0,  2.66, 
 06/04/09, 16:00,   4.3,  45,   0.8,   1.2,   1.8,   0.0,  2.06, 
 06/04/09, 17:00,   3.3,  52,   0.8,   1.2,   1.8,   0.0,  1.24, 
 06/04/09, 18:00,   1.8,  55,   0.8,   1.2,   1.8,   0.0,  0.41, 
 06/04/09, 19:00,  -0.2,  74,   0.8,   1.2,   1.8,   0.0,  0.01, 
 06/04/09, 20:00,   1.6,  55,   0.8,   1.2,   1.8,   0.0,  0.00, 
 06/04/09, 21:00,  -0.8,  74,   0.8,   1.2,   1.8,   0.0,  0.00, 
 06/04/09, 22:00,  -1.3,  79,   0.8,   1.2,   1.8,   0.0,  0.00, 
 06/04/09, 23:00,   0.5,  65,   0.8,   1.2,   1.8,   0.0,  0.00, 
 06/04/10, 00:00,   1.2,  66,   0.8,   1.2,   1.8,   0.0,  0.00, 
 06/04/10, 01:00,   5.2,  51,   0.7,   1.2,   1.8,   0.0,  0.00, 
 06/04/10, 02:00,   5.4,  53,   0.7,   1.2,   1.8,   0.0,  0.00, 
 06/04/10, 03:00,   5.2,  55,   0.7,   1.2,   1.8,   0.0,  0.00, 
 06/04/10, 04:00,   5.9,  52,   0.7,   1.2,   1.8,   0.0,  0.00, 
 06/04/10, 05:00,   6.1,  51,   0.7,   1.2,   1.8,   0.0,  0.00, 
 06/04/10, 06:00,   5.2,  56,   0.7,   1.2,   1.8,   0.0,  0.00, 
 06/04/10, 07:00,   3.9,  68,   0.7,   1.2,   1.8,   0.0,  0.03, 
 06/04/10, 08:00,   6.6,  54,   0.7,   1.2,   1.8,   0.0,  0.38, 
 06/04/10, 09:00,   5.9,  61,   0.7,   1.2,   1.8,   0.0,  0.52, 
 06/04/10, 10:00,   4.8,  63,   0.7,   1.2,   1.8,   0.0,  0.60, 
 06/04/10, 11:00,   4.3,  82,   0.7,   1.2,   1.8,   0.0,  0.53, 
 06/04/10, 12:00,   4.5,  79,   0.7,   1.2,   1.8,   0.0,  0.78, 
 06/04/10, 13:00,   3.6,  88,   0.7,   1.2,   1.8,   0.0,  0.55, 
 06/04/10, 14:00,   3.4,  99,   0.7,   1.2,   1.8,   0.0,  0.50, 
 06/04/10, 15:00,   3.6,  97,   0.7,   1.2,   1.8,   0.5,  0.30, 
 06/04/10, 16:00,   3.8,  95,   0.8,   1.2,   1.8,   0.0,  0.23, 
 06/04/10, 17:00,   3.6,  97,   0.8,   1.2,   1.8,   0.5,  0.12, 
 06/04/10, 18:00,   3.4,  97,   0.8,   1.2,   1.8,   0.0,  0.01, 
 06/04/10, 19:00,   3.0,  99,   0.8,   1.2,   1.8,   0.0,  0.00, 
 06/04/10, 20:00,   2.9,  99,   0.8,   1.2,   1.8,   0.5,  0.00, 
 06/04/10, 21:00,   4.3,  92,   0.9,   1.2,   1.8,   0.0,  0.00, 
 06/04/10, 22:00,   4.7,  91,   0.9,   1.3,   1.8,   0.5,  0.00, 
 06/04/10, 23:00,   3.0,  99,   0.9,   1.3,   1.8,   0.0,  0.00, 
 06/04/11, 00:00,   3.0,  99,   0.9,   1.2,   1.8,   1.5,  0.00, 
 06/04/11, 01:00,   3.4,  99,   0.9,   1.3,   1.8,   1.5,  0.00, 
 06/04/11, 02:00,   2.7,  99,   0.9,   1.3,   1.8,   2.0,  0.00, 
 06/04/11, 03:00,   3.8,  99,   0.9,   1.2,   1.8,   3.0,  0.00, 
 06/04/11, 04:00,   3.4,  99,   0.9,   1.3,   1.8,   2.0,  0.00, 
 06/04/11, 05:00,   4.8,  93,   0.9,   1.3,   1.8,   0.5,  0.00, 
 06/04/11, 06:00,   5.4,  94,   0.9,   1.3,   1.8,   0.5,  0.00, 
 06/04/11, 07:00,   5.3,  96,   0.9,   1.3,   1.8,   0.0,  0.11, 
 06/04/11, 08:00,   5.7,  99,   1.0,   1.3,   1.8,   0.5,  0.29, 
 06/04/11, 09:00,   7.4,  86,   1.0,   1.4,   1.8,   0.0,  0.42, 
 06/04/11, 10:00,   7.6,  86,   1.1,   1.4,   1.8,   0.0,  0.48, 
 06/04/11, 11:00,   7.7,  88,   1.2,   1.4,   1.8,   0.0,  0.46, 
 06/04/11, 12:00,   7.1,  99,   1.4,   1.4,   1.8,   1.5,  0.29, 
 06/04/11, 13:00,   7.6,  92,   1.5,   1.5,   1.8,   2.0,  0.26, 
 06/04/11, 14:00,   7.8,  88,   1.6,   1.5,   1.8,   2.5,  0.21, 
 06/04/11, 15:00,   7.8,  83,   1.7,   1.6,   1.8,   1.5,  0.18, 
 06/04/11, 16:00,   8.2,  86,   1.8,   1.6,   1.9,   0.0,  0.27, 
 06/04/11, 17:00,   8.3,  81,   1.9,   1.7,   1.8,   0.0,  0.20, 
 06/04/11, 18:00,  10.3,  73,   2.0,   1.7,   1.8,   0.5,  0.07, 
 06/04/11, 19:00,  10.6,  68,   2.2,   1.8,   1.8,   0.0,  0.00, 
 06/04/11, 20:00,   8.7,  92,   2.2,   1.9,   1.8,   0.0,  0.00, 
 06/04/11, 21:00,   6.4,  99,   2.3,   1.9,   1.8,   0.0,  0.00, 
 06/04/11, 22:00,   8.1,  97,   2.4,   2.0,   1.8,   0.5,  0.00, 
 06/04/11, 23:00,   8.0,  99,   2.5,   2.1,   1.9,   1.0,  0.00, 
 06/04/12, 00:00,   8.2,  99,   2.7,   2.1,   1.9,   2.5,  0.00, 
 06/04/12, 01:00,  11.0,  68,   2.8,   2.2,   1.9,   0.5,  0.00, 
 06/04/12, 02:00,  10.9,  71,   2.9,   2.2,   1.9,   0.0,  0.00, 
 06/04/12, 03:00,  10.0,  74,   3.0,   2.3,   1.9,   0.0,  0.00, 
 06/04/12, 04:00,   8.5,  87,   3.1,   2.4,   1.9,   0.0,  0.00, 
 06/04/12, 05:00,  10.1,  80,   3.1,   2.4,   2.0,   0.0,  0.00, 
 06/04/12, 06:00,  10.6,  81,   3.1,   2.5,   2.0,   0.0,  0.00, 
 06/04/12, 07:00,  10.6,  82,   3.2,   2.5,   2.0,   0.0,  0.17, 
 06/04/12, 08:00,  11.1,  81,   3.2,   2.6,   2.0,   0.0,  0.78, 
 06/04/12, 09:00,  12.8,  76,   3.5,   2.6,   2.1,   0.0,  2.11, 
 06/04/12, 10:00,  13.1,  82,   3.7,   2.7,   2.1,   0.0,  1.82, 
 06/04/12, 11:00,  10.5,  99,   4.3,   2.7,   2.1,   0.0,  1.45, 
 06/04/12, 12:00,  12.2,  95,   4.8,   2.8,   2.1,   0.0,  1.72, 
 06/04/12, 13:00,  14.8,  69,   5.4,   2.9,   2.1,   0.0,  2.87, 
 06/04/12, 14:00,  14.2,  67,   6.2,   3.0,   2.2,   0.0,  2.38, 
 06/04/12, 15:00,  11.5,  88,   6.8,   3.2,   2.2,   0.0,  1.00, 
 06/04/12, 16:00,  11.0,  91,   7.0,   3.5,   2.2,   0.0,  0.71, 
 06/04/12, 17:00,  11.4,  88,   7.1,   3.7,   2.2,   0.0,  0.85, 
 06/04/12, 18:00,   9.0,  96,   7.1,   3.9,   2.3,   0.0,  0.28, 
 06/04/12, 19:00,   8.3,  99,   7.0,   4.1,   2.3,   0.5,  0.00, 
 06/04/12, 20:00,   7.6,  99,   6.8,   4.2,   2.3,   0.0,  0.00, 
 06/04/12, 21:00,   8.3,  99,   6.7,   4.4,   2.4,   0.0,  0.00, 
 06/04/12, 22:00,   7.9,  99,   6.4,   4.5,   2.4,   0.0,  0.00, 
 06/04/12, 23:00,   7.8,  99,   6.2,   4.5,   2.5,   0.0,  0.00, 
 06/04/13, 00:00,   6.8,  99,   6.1,   4.6,   2.5,   0.0,  0.00, 
 06/04/13, 01:00,   5.2,  99,   5.9,   4.6,   2.5,   0.0,  0.00, 
 06/04/13, 02:00,   5.7,  99,   5.8,   4.6,   2.6,   0.0,  0.00, 
 06/04/13, 03:00,   5.9,  99,   5.6,   4.6,   2.6,   0.0,  0.00, 
 06/04/13, 04:00,   5.3,  99,   5.4,   4.6,   2.7,   0.0,  0.00, 
 06/04/13, 05:00,   5.4,  99,   5.3,   4.6,   2.7,   0.0,  0.00, 
 06/04/13, 06:00,   5.6,  99,   5.2,   4.6,   2.8,   0.0,  0.00, 
 06/04/13, 07:00,   6.0,  99,   5.1,   4.5,   2.8,   0.0,  0.31, 
 06/04/13, 08:00,   7.3,  99,   5.1,   4.5,   2.9,   0.0,  0.88, 
 06/04/13, 09:00,   8.4,  99,   5.2,   4.5,   2.9,   0.0,  1.44, 
 06/04/13, 10:00,   9.5,  91,   5.5,   4.5,   2.9,   0.0,  0.90, 
 06/04/13, 11:00,  10.7,  91,   5.8,   4.5,   3.0,   0.0,  1.63, 
 06/04/13, 12:00,   8.5,  99,   6.2,   4.5,   3.0,   0.0,  0.84, 
 06/04/13, 13:00,   9.6,  99,   6.6,   4.5,   3.0,   0.0,  0.76, 
 06/04/13, 14:00,  10.0,  98,   6.8,   4.6,   3.1,   0.0,  0.94, 
 06/04/13, 15:00,  10.2,  93,   7.0,   4.7,   3.1,   0.0,  0.74, 
 06/04/13, 16:00,   7.9,  99,   7.1,   4.8,   3.1,   0.0,  0.46, 
 06/04/13, 17:00,   6.8,  99,   7.2,   4.9,   3.1,   0.0,  0.13, 
 06/04/13, 18:00,   5.8,  99,   7.1,   5.0,   3.2,   0.0,  0.00, 
 06/04/13, 19:00,   5.0,  99,   7.0,   5.1,   3.2,   0.0,  0.00, 
 06/04/13, 20:00,   4.9,  99,   6.8,   5.2,   3.2,   0.0,  0.00, 
 06/04/13, 21:00,   4.6,  99,   6.7,   5.2,   3.2,   0.0,  0.00, 
 06/04/13, 22:00,   4.1,  99,   6.5,   5.2,   3.3,   0.0,  0.00, 
 06/04/13, 23:00,   3.4,  99,   6.2,   5.2,   3.3,   0.0,  0.00, 
 06/04/14, 00:00,   2.7,  99,   6.1,   5.2,   3.3,   0.0,  0.00, 
 06/04/14, 01:00,   2.5,  99,   5.9,   5.2,   3.4,   0.0,  0.00, 
 06/04/14, 02:00,   3.1,  99,   5.8,   5.2,   3.4,   0.0,  0.00, 
 06/04/14, 03:00,   2.7,  99,   5.6,   5.2,   3.4,   0.0,  0.00, 
 06/04/14, 04:00,   2.3,  99,   5.5,   5.1,   3.5,   0.0,  0.00, 
 06/04/14, 05:00,   1.3,  99,   5.3,   5.1,   3.5,   0.0,  0.00, 
 06/04/14, 06:00,   1.1,  99,   5.2,   5.1,   3.5,   0.0,  0.00, 
 06/04/14, 07:00,   1.1,  99,   5.0,   5.0,   3.5,   0.0,  0.13, 
 06/04/14, 08:00,   1.2,  99,   4.9,   5.0,   3.6,   0.0,  0.52, 
 06/04/14, 09:00,   0.8,  99,   4.9,   4.8,   3.6,   0.0,  0.51, 
 06/04/14, 10:00,   1.1,  99,   4.9,   4.8,   3.6,   0.0,  0.64, 
 06/04/14, 11:00,   1.9,  99,   5.0,   4.8,   3.6,   0.0,  0.62, 
 06/04/14, 12:00,   1.9,  99,   5.0,   4.8,   3.6,   0.0,  0.77, 
 06/04/14, 13:00,   1.5,  99,   5.2,   4.7,   3.7,   0.0,  0.88, 
 06/04/14, 14:00,   1.3,  99,   5.2,   4.7,   3.7,   0.0,  0.67, 
 06/04/14, 15:00,   0.9,  99,   5.3,   4.7,   3.7,   0.0,  0.45, 
 06/04/14, 16:00,   0.9,  99,   5.3,   4.7,   3.7,   0.0,  0.43, 
 06/04/14, 17:00,   0.8,  99,   5.2,   4.7,   3.7,   0.0,  0.24, 
 06/04/14, 18:00,   0.6,  99,   5.2,   4.7,   3.7,   0.0,  0.12, 
 06/04/14, 19:00,   0.5,  99,   5.0,   4.7,   3.7,   0.0,  0.00, 
 06/04/14, 20:00,   0.4,  99,   4.9,   4.7,   3.7,   0.0,  0.00, 
 06/04/14, 21:00,  -0.4,  99,   4.8,   4.7,   3.7,   0.0,  0.00, 
 06/04/14, 22:00,  -0.6,  99,   4.6,   4.7,   3.7,   0.0,  0.00, 
 06/04/14, 23:00,   1.4,  99,   4.4,   4.6,   3.7,   0.0,  0.00, 
 06/04/15, 00:00,   1.6,  99,   4.2,   4.6,   3.8,   0.0,  0.00, 
 06/04/15, 01:00,   2.1,  88,   4.1,   4.5,   3.8,   0.0,  0.00, 
 06/04/15, 02:00,   3.5,  79,   3.9,   4.5,   3.8,   0.0,  0.00, 
 06/04/15, 03:00,   3.8,  89,   3.8,   4.4,   3.8,   0.0,  0.00, 
 06/04/15, 04:00,   3.7,  95,   3.8,   4.4,   3.8,   0.0,  0.00, 
 06/04/15, 05:00,   3.0,  99,   3.7,   4.2,   3.8,   0.0,  0.00, 
 06/04/15, 06:00,   3.9,  96,   3.7,   4.2,   3.8,   0.0,  0.00, 
 06/04/15, 07:00,   4.4,  97,   3.7,   4.2,   3.8,   0.0,  0.23, 
 06/04/15, 08:00,   5.7,  93,   3.7,   4.1,   3.8,   0.0,  0.73, 
 06/04/15, 09:00,   7.9,  72,   3.9,   4.1,   3.8,   0.0,  1.00, 
 06/04/15, 10:00,   7.4,  85,   4.2,   4.1,   3.8,   0.0,  1.81, 
 06/04/15, 11:00,   6.4,  88,   4.7,   4.1,   3.8,   0.0,  1.59, 
 06/04/15, 12:00,   5.6,  99,   5.1,   4.1,   3.8,   0.0,  0.77, 
 06/04/15, 13:00,   5.9,  99,   5.4,   4.1,   3.8,   0.0,  0.48, 
 06/04/15, 14:00,   6.0,  99,   5.5,   4.1,   3.8,   0.0,  0.56, 
 06/04/15, 15:00,   5.2,  99,   5.6,   4.3,   3.8,   0.0,  0.73, 
 06/04/15, 16:00,   4.9,  99,   5.7,   4.4,   3.8,   0.0,  0.37, 
 06/04/15, 17:00,   4.5,  99,   5.8,   4.4,   3.8,   0.0,  0.28, 
 06/04/15, 18:00,   3.9,  99,   5.8,   4.6,   3.8,   0.0,  0.03, 
 06/04/15, 19:00,   3.7,  99,   5.7,   4.6,   3.8,   0.0,  0.00, 
 06/04/15, 20:00,   3.0,  99,   5.6,   4.7,   3.8,   0.5,  0.00, 
 06/04/15, 21:00,   1.5,  99,   5.4,   4.7,   3.8,   0.5,  0.00, 
 06/04/15, 22:00,   1.0,  99,   5.3,   4.7,   3.8,   1.0,  0.00, 
 06/04/15, 23:00,   0.6,  99,   5.1,   4.7,   3.8,   0.5,  0.00, 
 06/04/16, 00:00,   0.6,  99,   4.9,   4.7,   3.8,   0.5,  0.00, 
 06/04/16, 01:00,   0.6,  99,   4.8,   4.7,   3.8,   0.5,  0.00, 